RH
31 35 35 32 31 32 35 34 33 33 37 42 42 41 41 42 41 45 47 46 43 40 38 30 27 23 24 20 17 15 22 36 52 56 56 56 57 54 51 48 44 42 39 38
31 38 35 38 42 44 52 56 50 46 49 53 50 47 47 47 53 58 63 63 61 58 53 45 41 32 27 26 22 18 17 29 43 50 53 53 55 56 51 47 43 40 37 35
44 41 46 50 55 58 57 58 60 66 63 60 59 51 52 54 64 68 71 69 72 70 57 54 59 56 35 30 27 23 18 22 39 46 53 55 54 50 50 46 41 39 36 33
48 50 53 59 63 61 61 62 68 71 72 68 63 64 56 62 69 76 84 79 71 67 66 69 71 70 50 40 36 26 21 18 33 44 48 51 49 46 46 46 47 41 39 37
55 55 62 66 64 66 68 71 74 76 80 81 69 85 67 74 78 80 84 85 83 83 81 77 83 81 59 50 43 32 25 20 32 41 43 46 44 41 41 44 44 45 42 41
61 65 67 67 69 72 72 75 75 78 85 86 77 86 75 87 87 84 89 94 92 92 97 94 91 91 81 61 46 38 28 22 32 38 40 41 38 39 39 47 51 46 46 49
62 64 66 65 68 72 79 84 81 82 88 80 83 91 91 92 90 91 92 95 98 98 98 98 98 98 98 88 62 48 37 32 41 46 47 40 38 43 50 53 49 54 60 60
63 61 56 62 63 72 78 84 88 86 81 79 82 90 94 93 93 93 94 98 98 98 97 98 98 98 98 94 71 55 46 39 43 45 44 48 52 54 58 46 59 64 64 65
56 55 49 57 61 69 73 78 81 90 77 84 79 85 94 94 95 96 97 97 95 88 89 94 95 97 97 92 71 62 55 50 46 50 50 48 47 46 41 52 70 73 82 72
54 60 47 51 59 64 71 74 80 85 84 82 70 81 87 92 93 95 91 79 75 64 67 67 75 82 95 97 88 83 67 60 53 47 44 43 47 48 75 90 88 87 84 87
50 53 43 47 53 54 61 63 70 75 76 75 70 70 67 66 69 75 68 58 56 50 51 58 57 60 71 90 81 87 85 94 94 87 80 85 94 98 99 98 97 98 93 95
43 45 45 33 35 39 42 44 54 70 68 64 64 59 45 46 46 49 57 48 36 41 35 37 40 47 55 67 64 71 80 79 79 80 89 91 94 93 93 87 79 80 80 73
40 43 43 26 28 32 34 36 37 44 56 56 49 37 37 36 38 37 37 34 34 27 27 19 29 36 42 34 36 30 33 45 52 53 49 47 48 50 49 47 44 39 35 32
39 39 36 32 25 28 30 33 34 38 50 39 33 25 28 30 31 31 29 28 25 26 28 20 17 17 16 18 16 16 17 22 28 29 26 23 17 14 13 11 11 10 8 7
39 39 35 32 30 30 30 28 28 38 31 37 26 28 24 25 27 27 25 24 24 23 24 22 16 16 15 14 13 13 11 11 11 10 10 9 9 8 8 8 7 7 7 7
35 37 35 33 25 27 32 26 27 27 27 26 26 25 20 21 24 26 24 24 23 22 23 21 16 15 14 12 12 11 11 11 11 11 10 10 9 8 8 8 8 8 7 8
35 36 35 30 25 26 20 15 19 20 19 20 24 18 19 20 21 22 22 22 21 21 21 20 17 14 14 13 12 12 12 12 11 10 10 9 10 10 10 10 10 10 9 9
38 39 39 34 26 24 14 19 18 18 18 20 21 19 19 20 21 21 21 21 20 20 19 19 16 13 14 14 14 13 12 12 11 10 9 10 11 12 12 12 12 12 12 12
40 40 38 34 32 21 18 20 22 22 16 18 19 18 20 22 24 21 21 21 21 21 20 19 17 14 14 15 15 14 13 12 11 11 10 11 12 13 13 13 14 13 13 11
42 43 39 37 34 20 13 21 24 24 18 18 19 18 20 24 25 21 17 19 20 21 21 19 16 16 17 18 18 17 15 14 13 12 11 12 12 13 14 14 14 14 14 14
38 40 43 40 36 22 17 21 22 18 15 19 24 25 24 24 23 23 20 18 20 21 20 18 16 18 18 19 20 20 18 16 15 13 12 12 13 14 14 16 17 17 18 18
26 31 32 35 38 31 16 19 17 13 16 20 22 23 25 26 26 28 27 25 24 22 21 19 19 20 20 21 21 22 21 19 17 14 13 14 14 14 15 17 19 21 22 23
24 19 19 22 19 15 15 15 16 17 18 20 20 21 21 22 24 27 29 29 27 28 29 29 28 28 26 24 24 25 24 21 18 16 15 16 16 16 17 19 20 22 26 29
30 28 28 27 20 19 20 20 20 22 22 22 22 22 24 24 25 26 28 29 29 29 29 31 32 33 32 31 32 33 29 26 23 20 19 19 19 19 20 21 22 24 29 34
29 31 30 28 26 24 23 22 21 22 21 22 23 23 24 26 26 27 28 30 31 29 28 29 30 32 33 33 32 34 36 38 38 32 26 22 20 20 21 22 25 33 43 50
30 29 30 24 23 25 26 25 24 24 25 25 26 23 22 23 24 26 27 28 31 33 34 33 35 36 33 31 31 32 36 37 35 34 34 36 33 31 30 31 40 51 49 47